Springfield, IL

6:13 PM CST on December 15, 2019 (GMT -0600)
Capital

Weather History for KSPI - October, 2019

Change the Weather History Date:

Thursday, October 31, 2019

  Actual Average Record
Temperature  
Mean Temperature 30 °F 50 °F  
Max Temperature 34 °F 60 °F 86 °F (1950)
Min Temperature 26 °F 40 °F 22 °F (1925)
Degree Days  
Heating Degree Days 35 15  
Month to date heating degree days 384 328  
Since 1 July heating degree days 385 410  
Cooling Degree Days 0 0  
Month to date cooling degree days 32 22  
Year to date cooling degree days 1309 1121  
Moisture  
Dew Point 27 °F    
Average Humidity 79    
Maximum Humidity 92    
Minimum Humidity 66    
Precipitation  
Precipitation 0.18 in 0.10 in 1.42 in (1994)
Month to date precipitation 4.66 3.15  
Year to date precipitation 45.21 31.70  
Snow  
Snow 2.30 in 0.00 in T in (1993)
Month to date snowfall 2.3 T  
Since 1 July snowfall 2.3 T  
Since 1 September snowfall 2.3 T  
Snow Depth T in    
Sea Level Pressure  
Sea Level Pressure 30.02 in    
Wind  
Wind Speed 12 mph (WNW)    
Max Wind Speed 23 mph    
Max Gust Speed 34 mph    
Visibility 4 miles    
Events Fog , Rain , Snow    
T = Trace of Precipitation, MM = Missing Value Source: NWS Daily Summary

Daily Weather History Graph

Daily Weather History Graph

Search for Another Location

Airport or City:

Astronomy

Oct. 31, 2019 Rise Set
Actual Time 7:26 AM CDT 5:57 PM CDT
Civil Twilight 6:58 AM CDT 6:25 PM CDT
Nautical Twilight 6:26 AM CDT 6:57 PM CDT
Astronomical Twilight 5:54 AM CDT 7:29 PM CDT
Moon 11:14 AM CDT (10/31) 8:54 PM CDT (10/31)
Length of Visible Light 11h 27m
Length of Day
10h 31m
Waxing Crescent, 16% of the Moon is Illuminated
Oct 31
Waxing Crescent
Nov 4
First Quarter
Nov 12
Full
Nov 19
Last Quarter
Nov 26
New

Hourly Weather History & Observations

Time (CDT) Temp. Windchill Dew Point Humidity Pressure Visibility Wind Dir Wind Speed Gust Speed Precip Events Conditions
12:52 AM 34.0 °F 25.0 °F 30.9 °F 89% 29.96 in 5.0 mi NNW 12.7 mph 25.3 mph 0.05 in Rain Light Rain
1:52 AM 33.1 °F 23.0 °F 30.0 °F 89% 29.96 in 6.0 mi NNW 15.0 mph 23.0 mph 0.05 in Rain Light Rain
2:40 AM 32.0 °F 22.5 °F 30.0 °F 92% 29.95 in 2.5 mi NNW 12.7 mph - 0.01 in Snow Light Snow
2:52 AM 32.0 °F 23.6 °F 30.0 °F 92% 29.96 in 3.0 mi NNW 10.4 mph 26.5 mph 0.01 in   Overcast
3:13 AM 32.0 °F 23.0 °F 30.0 °F 92% 29.93 in 3.0 mi NNW 11.5 mph 21.9 mph 0.00 in   Overcast
3:43 AM 32.0 °F 22.1 °F 28.9 °F 88% 29.93 in 3.0 mi NNW 13.8 mph 21.9 mph 0.01 in Snow Light Snow
3:52 AM 32.0 °F 22.5 °F 30.0 °F 92% 29.95 in 4.0 mi NNW 12.7 mph 21.9 mph 0.01 in   Overcast
4:01 AM 32.0 °F 23.6 °F 30.0 °F 92% 29.94 in 5.0 mi NW 10.4 mph - 0.00 in Snow Light Snow
4:17 AM 32.0 °F 23.0 °F 30.0 °F 92% 29.93 in 2.0 mi NW 11.5 mph - 0.00 in Snow Light Snow
4:26 AM 32.0 °F 22.5 °F 30.0 °F 92% 29.93 in 1.5 mi NW 12.7 mph - 0.00 in Snow Light Snow
4:43 AM 32.0 °F 23.0 °F 30.0 °F 92% 29.94 in 1.2 mi NW 11.5 mph - 0.00 in Snow Light Snow
4:52 AM 32.0 °F 23.6 °F 28.9 °F 88% 29.95 in 1.2 mi NW 10.4 mph - 0.00 in Snow Light Snow
5:12 AM 32.0 °F 23.0 °F 28.9 °F 88% 29.92 in 1.5 mi NW 11.5 mph - 0.01 in Snow Light Snow
5:52 AM 30.9 °F 21.7 °F 28.9 °F 92% 29.93 in 1.8 mi NW 11.5 mph 19.6 mph 0.01 in Snow Light Snow
6:35 AM 30.9 °F 20.2 °F 28.0 °F 89% 29.92 in 2.5 mi WNW 15.0 mph 23.0 mph 0.02 in Snow Light Snow
6:44 AM 30.9 °F 19.8 °F 28.0 °F 89% 29.92 in 1.5 mi WNW 16.1 mph 26.5 mph 0.02 in Snow Light Snow
6:52 AM 30.0 °F 18.3 °F 27.0 °F 88% 29.94 in 1.5 mi NW 17.3 mph 26.5 mph 0.02 in Snow Light Snow
7:24 AM 30.0 °F 18.7 °F 27.0 °F 88% 29.93 in 1.2 mi NW 16.1 mph 29.9 mph 0.00 in Snow Light Snow
7:40 AM 30.0 °F 18.3 °F 27.0 °F 88% 29.93 in 1.2 mi WNW 17.3 mph 26.5 mph 0.00 in Snow Light Snow
7:52 AM 30.0 °F 18.7 °F 26.1 °F 85% 29.95 in 1.0 mi WNW 16.1 mph 28.8 mph 0.00 in Snow Light Snow
8:23 AM 30.0 °F 17.5 °F 26.1 °F 85% 29.95 in 0.8 mi WNW 19.6 mph 29.9 mph 0.01 in Snow Light Snow
8:49 AM 28.4 °F 15.4 °F 26.6 °F 93% 29.96 in 0.5 mi WNW 19.6 mph 28.8 mph 0.02 in Fog , Snow Light Snow
8:52 AM 28.9 °F 17.7 °F 26.1 °F 89% 29.98 in 0.5 mi WNW 15.0 mph 28.8 mph 0.02 in Fog , Snow Light Snow
9:38 AM 28.9 °F 18.2 °F 26.1 °F 89% 29.98 in 0.8 mi WNW 13.8 mph 26.5 mph 0.02 in Snow Light Snow
9:52 AM 28.9 °F 16.5 °F 26.1 °F 89% 30.00 in 0.8 mi WNW 18.4 mph 31.1 mph 0.02 in Snow Light Snow
10:15 AM 28.9 °F 17.3 °F 26.1 °F 89% 29.99 in 0.8 mi WNW 16.1 mph 27.6 mph 0.01 in Snow Light Snow
10:52 AM 30.0 °F 18.3 °F 26.1 °F 85% 30.03 in 0.8 mi WNW 17.3 mph 28.8 mph 0.01 in Snow Light Snow
11:37 AM 30.0 °F 18.3 °F 26.1 °F 85% 30.02 in 1.2 mi WNW 17.3 mph 28.8 mph 0.00 in Snow Light Snow
11:52 AM 30.0 °F 18.3 °F 26.1 °F 85% 30.04 in 1.2 mi WNW 17.3 mph 26.5 mph 0.00 in Snow Light Snow
11:54 AM 30.0 °F 17.5 °F 26.1 °F 85% 30.02 in 3.0 mi WNW 19.6 mph 26.5 mph 0.01 in Snow Light Snow
12:18 PM 30.9 °F 17.8 °F 25.0 °F 79% 30.03 in 4.0 mi WNW 23.0 mph 32.2 mph 0.01 in   Overcast
12:52 PM 30.9 °F 19.4 °F 25.0 °F 79% 30.05 in 10.0 mi WNW 17.3 mph 28.8 mph 0.01 in   Overcast
2:52 PM 30.9 °F 20.7 °F 25.0 °F 79% 30.10 in 10.0 mi WNW 13.8 mph 27.6 mph N/A   Overcast
3:52 PM 30.9 °F 18.4 °F 23.0 °F 72% 30.13 in 10.0 mi WNW 20.7 mph 29.9 mph N/A   Overcast
4:52 PM 33.1 °F 23.9 °F 24.1 °F 70% 30.16 in 10.0 mi West 12.7 mph 27.6 mph N/A   Overcast
5:33 PM 32.0 °F 23.0 °F 23.0 °F 69% 30.16 in 10.0 mi West 11.5 mph - N/A   Scattered Clouds
5:52 PM 32.0 °F 23.0 °F 23.0 °F 69% 30.19 in 10.0 mi West 11.5 mph - N/A   Clear
6:52 PM 28.0 °F 24.2 °F 21.9 °F 78% 30.22 in 10.0 mi West 3.5 mph - N/A   Clear
7:52 PM 26.1 °F 21.9 °F 21.9 °F 84% 30.24 in 10.0 mi SW 3.5 mph - N/A   Clear
9:52 PM 28.0 °F 21.7 °F 23.0 °F 81% 30.26 in 10.0 mi SW 5.8 mph - N/A   Clear
10:52 PM 28.0 °F 22.8 °F 21.9 °F 78% 30.26 in 10.0 mi SW 4.6 mph - N/A   Clear
11:52 PM 28.0 °F 22.8 °F 21.9 °F 78% 30.26 in 10.0 mi SW 4.6 mph - N/A   Clear